Time,TemperatureF,DewpointF,PressureIn,WindDirection,WindDirectionDegrees,WindSpeedMPH,WindSpeedGustMPH,Humidity,HourlyPrecipIn,Conditions,Clouds,dailyrainin,SoftwareType,DateUTC
2013-01-31 00:00:00,51.1,48.0,29.63,North,357,4.0,-999.0,89,0.00,,,0.65,Wunderground v.1.15,2013-01-31 05:00:00,
2013-01-31 00:02:00,51.0,47.9,29.63,NE,41,4.0,-999.0,89,0.00,,,0.00,Wunderground v.1.15,2013-01-31 05:02:00,
2013-01-31 00:05:00,39.5,26.3,30.11,North,0,2.0,-999.0,59,0.00,,,-99.99,Wunderground v.1.15,2013-01-31 05:05:00,
2013-01-31 00:06:00,50.9,47.8,29.63,North,360,4.0,-999.0,89,0.00,,,0.00,Wunderground v.1.15,2013-01-31 05:06:00,
2013-01-31 00:10:00,39.5,26.3,30.11,North,0,2.0,-999.0,59,0.00,,,-99.99,Wunderground v.1.15,2013-01-31 05:10:00,
2013-01-31 00:12:00,50.8,47.7,29.63,NNE,25,4.0,-999.0,89,0.00,,,0.00,Wunderground v.1.15,2013-01-31 05:12:00,
2013-01-31 00:15:00,39.5,26.3,30.11,North,0,2.0,-999.0,59,0.00,,,-99.99,Wunderground v.1.15,2013-01-31 05:15:00,
2013-01-31 00:18:00,50.7,47.6,29.63,North,9,4.0,-999.0,89,0.00,,,0.00,Wunderground v.1.15,2013-01-31 05:18:00,
2013-01-31 00:20:00,39.5,26.3,30.11,North,0,2.0,-999.0,59,0.00,,,-99.99,Wunderground v.1.15,2013-01-31 05:20:00,
2013-01-31 00:24:00,50.6,47.2,29.62,NNW,337,4.0,-999.0,88,0.00,,,0.00,Wunderground v.1.15,2013-01-31 05:24:00,
2013-01-31 00:25:00,39.5,26.3,30.11,North,0,2.0,-999.0,59,0.00,,,-99.99,Wunderground v.1.15,2013-01-31 05:25:00,
2013-01-31 00:30:00,50.6,46.9,29.62,NNW,347,4.0,-999.0,87,0.00,,,0.00,Wunderground v.1.15,2013-01-31 05:30:00,
2013-01-31 00:35:00,39.5,26.3,30.11,North,0,2.0,-999.0,59,0.00,,,-99.99,Wunderground v.1.15,2013-01-31 05:35:00,
2013-01-31 00:36:00,50.5,46.8,29.63,North,360,5.0,-999.0,87,0.00,,,0.00,Wunderground v.1.15,2013-01-31 05:36:00,
2013-01-31 00:40:00,39.5,26.3,30.11,North,0,2.0,-999.0,59,0.00,,,-99.99,Wunderground v.1.15,2013-01-31 05:40:00,
2013-01-31 00:42:00,50.4,47.0,29.62,North,4,4.0,-999.0,88,0.00,,,0.00,Wunderground v.1.15,2013-01-31 05:42:00,
2013-01-31 00:45:00,39.5,26.3,30.11,North,0,2.0,-999.0,59,0.00,,,-99.99,Wunderground v.1.15,2013-01-31 05:45:00,
2013-01-31 00:48:00,50.3,46.9,29.63,NNE,20,4.0,-999.0,88,0.00,,,0.00,Wunderground v.1.15,2013-01-31 05:48:00,
2013-01-31 00:50:00,39.5,26.3,30.11,North,0,2.0,-999.0,59,0.00,,,-99.99,Wunderground v.1.15,2013-01-31 05:50:00,
2013-01-31 00:54:00,50.2,46.8,29.62,North,1,5.0,-999.0,88,0.00,,,0.00,Wunderground v.1.15,2013-01-31 05:54:00,
2013-01-31 00:55:00,39.5,26.3,30.11,North,0,2.0,-999.0,59,0.00,,,-99.99,Wunderground v.1.15,2013-01-31 05:55:00,
2013-01-31 01:00:00,50.1,46.7,29.62,NNE,33,5.0,-999.0,88,0.00,,,0.00,Wunderground v.1.15,2013-01-31 06:00:00,
2013-01-31 01:05:00,39.5,26.3,30.11,North,0,2.0,-999.0,59,0.00,,,-99.99,Wunderground v.1.15,2013-01-31 06:05:00,
2013-01-31 01:06:00,50.2,46.8,29.62,North,352,4.0,-999.0,88,0.00,,,0.00,Wunderground v.1.15,2013-01-31 06:06:00,
2013-01-31 01:10:00,39.5,26.3,30.11,North,0,2.0,-999.0,59,0.00,,,-99.99,Wunderground v.1.15,2013-01-31 06:10:00,
2013-01-31 01:12:00,50.3,46.6,29.63,North,2,6.0,-999.0,87,0.00,,,0.00,Wunderground v.1.15,2013-01-31 06:12:00,
2013-01-31 01:15:00,39.5,26.3,30.11,North,0,2.0,-999.0,59,0.00,,,-99.99,Wunderground v.1.15,2013-01-31 06:15:00,
2013-01-31 01:18:00,50.3,46.9,29.63,NNE,29,5.0,-999.0,88,0.00,,,0.00,Wunderground v.1.15,2013-01-31 06:18:00,
2013-01-31 01:20:00,39.5,26.3,30.11,North,0,2.0,-999.0,59,0.00,,,-99.99,Wunderground v.1.15,2013-01-31 06:20:00,
2013-01-31 01:24:00,50.2,47.1,29.63,NNW,339,4.0,-999.0,89,0.00,,,0.00,Wunderground v.1.15,2013-01-31 06:24:00,
2013-01-31 01:25:00,39.5,26.3,30.11,North,0,2.0,-999.0,59,0.00,,,-99.99,Wunderground v.1.15,2013-01-31 06:25:00,
2013-01-31 01:30:00,50.1,46.7,29.63,NNW,331,4.0,-999.0,88,0.00,,,0.00,Wunderground v.1.15,2013-01-31 06:30:00,
2013-01-31 01:35:00,39.5,26.3,30.11,North,0,2.0,-999.0,59,0.00,,,-99.99,Wunderground v.1.15,2013-01-31 06:35:00,
2013-01-31 01:36:00,50.2,46.8,29.62,North,6,5.0,-999.0,88,0.00,,,0.00,Wunderground v.1.15,2013-01-31 06:36:00,
2013-01-31 01:40:00,39.5,26.3,30.11,North,0,2.0,-999.0,59,0.00,,,-99.99,Wunderground v.1.15,2013-01-31 06:40:00,
2013-01-31 01:42:00,50.2,46.5,29.62,North,6,6.0,-999.0,87,0.00,,,0.00,Wunderground v.1.15,2013-01-31 06:42:00,
2013-01-31 01:45:00,39.5,26.3,30.11,North,0,2.0,-999.0,59,0.00,,,-99.99,Wunderground v.1.15,2013-01-31 06:45:00,
2013-01-31 01:48:00,50.1,46.4,29.62,NE,44,5.0,-999.0,87,0.00,,,0.00,Wunderground v.1.15,2013-01-31 06:48:00,
2013-01-31 01:50:00,39.5,26.3,30.11,North,0,2.0,-999.0,59,0.00,,,-99.99,Wunderground v.1.15,2013-01-31 06:50:00,
2013-01-31 01:54:00,50.0,46.3,29.63,NE,37,4.0,-999.0,87,0.00,,,0.00,Wunderground v.1.15,2013-01-31 06:54:00,
2013-01-31 01:55:00,39.5,26.3,30.11,North,0,2.0,-999.0,59,0.00,,,-99.99,Wunderground v.1.15,2013-01-31 06:55:00,
2013-01-31 02:00:00,50.1,46.1,29.63,NNE,18,6.0,-999.0,86,0.00,,,0.00,Wunderground v.1.15,2013-01-31 07:00:00,
2013-01-31 02:05:00,39.5,26.3,30.11,North,0,2.0,-999.0,59,0.00,,,-99.99,Wunderground v.1.15,2013-01-31 07:05:00,
2013-01-31 02:06:00,50.0,46.0,29.64,North,358,5.0,-999.0,86,0.00,,,0.00,Wunderground v.1.15,2013-01-31 07:06:00,
2013-01-31 02:10:00,39.5,26.3,30.11,North,0,2.0,-999.0,59,0.00,,,-99.99,Wunderground v.1.15,2013-01-31 07:10:00,
2013-01-31 02:12:00,49.8,45.5,29.64,East,80,6.0,-999.0,85,0.00,,,0.00,Wunderground v.1.15,2013-01-31 07:12:00,
2013-01-31 02:15:00,39.5,26.3,30.11,North,0,2.0,-999.0,59,0.00,,,-99.99,Wunderground v.1.15,2013-01-31 07:15:00,
2013-01-31 02:18:00,49.6,45.3,29.64,NE,37,5.0,-999.0,85,0.00,,,0.00,Wunderground v.1.15,2013-01-31 07:18:00,
2013-01-31 02:20:00,39.5,26.3,30.11,North,0,2.0,-999.0,59,0.00,,,-99.99,Wunderground v.1.15,2013-01-31 07:20:00,
2013-01-31 02:24:00,49.5,45.2,29.65,North,6,5.0,-999.0,85,0.00,,,0.00,Wunderground v.1.15,2013-01-31 07:24:00,
2013-01-31 02:25:00,39.5,26.3,30.11,North,0,2.0,-999.0,59,0.00,,,-99.99,Wunderground v.1.15,2013-01-31 07:25:00,
2013-01-31 02:30:00,49.5,45.2,29.65,NW,319,6.0,-999.0,85,0.00,,,0.00,Wunderground v.1.15,2013-01-31 07:30:00,
2013-01-31 02:35:00,39.5,26.3,30.11,North,0,2.0,-999.0,59,0.00,,,-99.99,Wunderground v.1.15,2013-01-31 07:35:00,
2013-01-31 02:36:00,49.5,44.9,29.66,NNE,25,6.0,-999.0,84,0.00,,,0.00,Wunderground v.1.15,2013-01-31 07:36:00,
2013-01-31 02:40:00,39.5,26.3,30.11,North,0,2.0,-999.0,59,0.00,,,-99.99,Wunderground v.1.15,2013-01-31 07:40:00,
2013-01-31 02:42:00,49.5,44.9,29.66,WNW,303,5.0,-999.0,84,0.00,,,0.00,Wunderground v.1.15,2013-01-31 07:42:00,
2013-01-31 02:45:00,39.5,26.3,30.11,North,0,2.0,-999.0,59,0.00,,,-99.99,Wunderground v.1.15,2013-01-31 07:45:00,
2013-01-31 02:48:00,49.4,44.5,29.66,NNE,33,6.0,-999.0,83,0.00,,,0.00,Wunderground v.1.15,2013-01-31 07:48:00,
2013-01-31 02:50:00,39.5,26.3,30.11,North,0,2.0,-999.0,59,0.00,,,-99.99,Wunderground v.1.15,2013-01-31 07:50:00,
2013-01-31 02:54:00,49.4,44.1,29.66,North,356,6.0,-999.0,82,0.00,,,0.00,Wunderground v.1.15,2013-01-31 07:54:00,
2013-01-31 02:55:00,39.5,26.3,30.11,North,0,2.0,-999.0,59,0.00,,,-99.99,Wunderground v.1.15,2013-01-31 07:55:00,
2013-01-31 03:00:00,49.3,43.7,29.66,NNW,328,7.0,-999.0,81,0.00,,,0.00,Wunderground v.1.15,2013-01-31 08:00:00,
2013-01-31 03:05:00,39.5,26.3,30.11,North,0,2.0,-999.0,59,0.00,,,-99.99,Wunderground v.1.15,2013-01-31 08:05:00,
2013-01-31 03:06:00,49.2,43.9,29.67,NNE,23,7.0,-999.0,82,0.00,,,0.00,Wunderground v.1.15,2013-01-31 08:06:00,
2013-01-31 03:10:00,39.5,26.3,30.11,North,0,2.0,-999.0,59,0.00,,,-99.99,Wunderground v.1.15,2013-01-31 08:10:00,
2013-01-31 03:12:00,49.0,43.4,29.67,ENE,77,6.0,-999.0,81,0.00,,,0.00,Wunderground v.1.15,2013-01-31 08:12:00,
2013-01-31 03:15:00,39.5,26.3,30.11,North,0,2.0,-999.0,59,0.00,,,-99.99,Wunderground v.1.15,2013-01-31 08:15:00,
2013-01-31 03:18:00,48.8,43.2,29.67,North,9,6.0,-999.0,81,0.00,,,0.00,Wunderground v.1.15,2013-01-31 08:18:00,
2013-01-31 03:20:00,39.5,26.3,30.11,North,0,2.0,-999.0,59,0.00,,,-99.99,Wunderground v.1.15,2013-01-31 08:20:00,
2013-01-31 03:24:00,48.4,42.8,29.68,NE,37,6.0,-999.0,81,0.00,,,0.00,Wunderground v.1.15,2013-01-31 08:24:00,
2013-01-31 03:25:00,39.5,26.3,30.11,North,0,2.0,-999.0,59,0.00,,,-99.99,Wunderground v.1.15,2013-01-31 08:25:00,
2013-01-31 03:30:00,48.0,42.4,29.68,NNE,14,6.0,-999.0,81,0.00,,,0.00,Wunderground v.1.15,2013-01-31 08:30:00,
2013-01-31 03:35:00,39.5,26.3,30.11,North,0,2.0,-999.0,59,0.00,,,-99.99,Wunderground v.1.15,2013-01-31 08:35:00,
2013-01-31 03:36:00,47.6,42.1,29.69,NNE,20,5.0,-999.0,81,0.00,,,0.00,Wunderground v.1.15,2013-01-31 08:36:00,
2013-01-31 03:40:00,39.5,26.3,30.11,North,0,2.0,-999.0,59,0.00,,,-99.99,Wunderground v.1.15,2013-01-31 08:40:00,
2013-01-31 03:42:00,47.3,41.8,29.69,ENE,59,5.0,-999.0,81,0.00,,,0.00,Wunderground v.1.15,2013-01-31 08:42:00,
2013-01-31 03:45:00,39.5,26.3,30.11,North,0,2.0,-999.0,59,0.00,,,-99.99,Wunderground v.1.15,2013-01-31 08:45:00,
2013-01-31 03:48:00,47.0,41.1,29.69,NE,36,5.0,-999.0,80,0.00,,,0.00,Wunderground v.1.15,2013-01-31 08:48:00,
2013-01-31 03:50:00,39.5,26.3,30.11,North,0,2.0,-999.0,59,0.00,,,-99.99,Wunderground v.1.15,2013-01-31 08:50:00,
2013-01-31 03:54:00,46.8,41.0,29.71,NW,316,5.0,-999.0,80,0.00,,,0.00,Wunderground v.1.15,2013-01-31 08:54:00,
2013-01-31 03:55:00,39.5,26.3,30.11,North,0,2.0,-999.0,59,0.00,,,-99.99,Wunderground v.1.15,2013-01-31 08:55:00,
2013-01-31 04:00:00,46.5,40.3,29.71,NE,47,5.0,-999.0,79,0.00,,,0.00,Wunderground v.1.15,2013-01-31 09:00:00,
2013-01-31 04:05:00,39.5,26.3,30.11,North,0,2.0,-999.0,59,0.00,,,-99.99,Wunderground v.1.15,2013-01-31 09:05:00,
2013-01-31 04:06:00,46.4,40.2,29.71,ENE,60,6.0,-999.0,79,0.00,,,0.00,Wunderground v.1.15,2013-01-31 09:06:00,
2013-01-31 04:10:00,39.5,26.3,30.11,North,0,2.0,-999.0,59,0.00,,,-99.99,Wunderground v.1.15,2013-01-31 09:10:00,
2013-01-31 04:12:00,46.1,39.6,29.71,NE,48,5.0,-999.0,78,0.00,,,0.00,Wunderground v.1.15,2013-01-31 09:12:00,
2013-01-31 04:15:00,39.5,26.3,30.11,North,0,2.0,-999.0,59,0.00,,,-99.99,Wunderground v.1.15,2013-01-31 09:15:00,
2013-01-31 04:18:00,46.0,39.2,29.72,NNE,25,6.0,-999.0,77,0.00,,,0.00,Wunderground v.1.15,2013-01-31 09:18:00,
2013-01-31 04:20:00,39.5,26.3,30.11,North,0,2.0,-999.0,59,0.00,,,-99.99,Wunderground v.1.15,2013-01-31 09:20:00,
2013-01-31 04:24:00,45.8,39.0,29.72,ENE,72,6.0,-999.0,77,0.00,,,0.00,Wunderground v.1.15,2013-01-31 09:24:00,
2013-01-31 04:25:00,39.5,26.3,30.11,North,0,2.0,-999.0,59,0.00,,,-99.99,Wunderground v.1.15,2013-01-31 09:25:00,
2013-01-31 04:30:00,45.6,38.5,29.73,ENE,73,6.0,-999.0,76,0.00,,,0.00,Wunderground v.1.15,2013-01-31 09:30:00,
2013-01-31 04:35:00,39.5,26.3,30.11,North,0,2.0,-999.0,59,0.00,,,-99.99,Wunderground v.1.15,2013-01-31 09:35:00,
2013-01-31 04:36:00,45.4,38.6,29.74,North,8,5.0,-999.0,77,0.00,,,0.00,Wunderground v.1.15,2013-01-31 09:36:00,
2013-01-31 04:40:00,39.5,26.3,30.11,North,0,2.0,-999.0,59,0.00,,,-99.99,Wunderground v.1.15,2013-01-31 09:40:00,
2013-01-31 04:42:00,44.9,38.5,29.74,NNE,28,4.0,-999.0,78,0.00,,,0.00,Wunderground v.1.15,2013-01-31 09:42:00,
2013-01-31 04:45:00,39.5,26.3,30.11,North,0,2.0,-999.0,59,0.00,,,-99.99,Wunderground v.1.15,2013-01-31 09:45:00,
2013-01-31 04:48:00,44.6,38.2,29.75,NE,41,4.0,-999.0,78,0.00,,,0.00,Wunderground v.1.15,2013-01-31 09:48:00,
2013-01-31 04:50:00,39.5,26.3,30.11,North,0,2.0,-999.0,59,0.00,,,-99.99,Wunderground v.1.15,2013-01-31 09:50:00,
2013-01-31 04:54:00,44.3,37.9,29.75,NE,34,4.0,-999.0,78,0.00,,,0.00,Wunderground v.1.15,2013-01-31 09:54:00,
2013-01-31 04:55:00,39.5,26.3,30.11,North,0,2.0,-999.0,59,0.00,,,-99.99,Wunderground v.1.15,2013-01-31 09:55:00,
2013-01-31 05:00:00,44.3,37.9,29.75,NNE,20,4.0,-999.0,78,0.00,,,0.00,Wunderground v.1.15,2013-01-31 10:00:00,
2013-01-31 05:05:00,39.5,26.3,30.11,North,0,2.0,-999.0,59,0.00,,,-99.99,Wunderground v.1.15,2013-01-31 10:05:00,
2013-01-31 05:06:00,44.2,37.8,29.76,NW,320,5.0,-999.0,78,0.00,,,0.00,Wunderground v.1.15,2013-01-31 10:06:00,
2013-01-31 05:10:00,39.5,26.3,30.11,North,0,2.0,-999.0,59,0.00,,,-99.99,Wunderground v.1.15,2013-01-31 10:10:00,
2013-01-31 05:12:00,44.0,37.6,29.76,NE,34,5.0,-999.0,78,0.00,,,0.00,Wunderground v.1.15,2013-01-31 10:12:00,
2013-01-31 05:15:00,39.5,26.3,30.11,North,0,2.0,-999.0,59,0.00,,,-99.99,Wunderground v.1.15,2013-01-31 10:15:00,
2013-01-31 05:18:00,44.1,38.0,29.77,NE,47,5.0,-999.0,79,0.00,,,0.00,Wunderground v.1.15,2013-01-31 10:18:00,
2013-01-31 05:20:00,39.5,26.3,30.11,North,0,2.0,-999.0,59,0.00,,,-99.99,Wunderground v.1.15,2013-01-31 10:20:00,
2013-01-31 05:24:00,44.1,37.3,29.78,East,79,5.0,-999.0,77,0.00,,,0.00,Wunderground v.1.15,2013-01-31 10:24:00,
2013-01-31 05:25:00,39.5,26.3,30.11,North,0,2.0,-999.0,59,0.00,,,-99.99,Wunderground v.1.15,2013-01-31 10:25:00,
2013-01-31 05:30:00,44.0,37.6,29.78,NE,47,4.0,-999.0,78,0.00,,,0.00,Wunderground v.1.15,2013-01-31 10:30:00,
2013-01-31 05:35:00,39.5,26.3,30.11,North,0,2.0,-999.0,59,0.00,,,-99.99,Wunderground v.1.15,2013-01-31 10:35:00,
2013-01-31 05:36:00,43.8,37.1,29.78,NNE,29,5.0,-999.0,77,0.00,,,0.00,Wunderground v.1.15,2013-01-31 10:36:00,
2013-01-31 05:40:00,39.5,26.3,30.11,North,0,2.0,-999.0,59,0.00,,,-99.99,Wunderground v.1.15,2013-01-31 10:40:00,
2013-01-31 05:42:00,43.8,37.4,29.79,North,352,7.0,-999.0,78,0.00,,,0.00,Wunderground v.1.15,2013-01-31 10:42:00,
2013-01-31 05:45:00,39.5,26.3,30.11,North,0,2.0,-999.0,59,0.00,,,-99.99,Wunderground v.1.15,2013-01-31 10:45:00,
2013-01-31 05:48:00,43.8,37.1,29.79,NE,47,5.0,-999.0,77,0.00,,,0.00,Wunderground v.1.15,2013-01-31 10:48:00,
2013-01-31 05:50:00,39.5,26.3,30.11,North,0,2.0,-999.0,59,0.00,,,-99.99,Wunderground v.1.15,2013-01-31 10:50:00,
2013-01-31 05:54:00,43.5,37.1,29.79,ENE,77,3.0,-999.0,78,0.00,,,0.00,Wunderground v.1.15,2013-01-31 10:54:00,
2013-01-31 05:55:00,39.5,26.3,30.11,North,0,2.0,-999.0,59,0.00,,,-99.99,Wunderground v.1.15,2013-01-31 10:55:00,
2013-01-31 06:00:00,43.3,36.6,29.80,ENE,73,4.0,-999.0,77,0.00,,,0.00,Wunderground v.1.15,2013-01-31 11:00:00,
2013-01-31 06:05:00,39.5,26.3,30.11,North,0,2.0,-999.0,59,0.00,,,-99.99,Wunderground v.1.15,2013-01-31 11:05:00,
2013-01-31 06:06:00,43.1,36.0,29.81,NE,55,4.0,-999.0,76,0.00,,,0.00,Wunderground v.1.15,2013-01-31 11:06:00,
2013-01-31 06:10:00,39.5,26.3,30.11,North,0,2.0,-999.0,59,0.00,,,-99.99,Wunderground v.1.15,2013-01-31 11:10:00,
2013-01-31 06:12:00,42.9,35.9,29.81,East,82,4.0,-999.0,76,0.00,,,0.00,Wunderground v.1.15,2013-01-31 11:12:00,
2013-01-31 06:15:00,39.5,26.3,30.11,North,0,2.0,-999.0,59,0.00,,,-99.99,Wunderground v.1.15,2013-01-31 11:15:00,
2013-01-31 06:18:00,42.9,35.5,29.81,North,10,4.0,-999.0,75,0.00,,,0.00,Wunderground v.1.15,2013-01-31 11:18:00,
2013-01-31 06:20:00,39.5,26.3,30.11,North,0,2.0,-999.0,59,0.00,,,-99.99,Wunderground v.1.15,2013-01-31 11:20:00,
2013-01-31 06:24:00,42.8,35.4,29.82,ENE,72,4.0,-999.0,75,0.00,,,0.00,Wunderground v.1.15,2013-01-31 11:24:00,
2013-01-31 06:25:00,39.5,26.3,30.11,North,0,2.0,-999.0,59,0.00,,,-99.99,Wunderground v.1.15,2013-01-31 11:25:00,
2013-01-31 06:30:00,42.7,35.3,29.83,ENE,67,4.0,-999.0,75,0.00,,,0.00,Wunderground v.1.15,2013-01-31 11:30:00,
2013-01-31 06:35:00,39.5,26.3,30.11,North,0,2.0,-999.0,59,0.00,,,-99.99,Wunderground v.1.15,2013-01-31 11:35:00,
2013-01-31 06:36:00,42.7,35.0,29.83,East,92,4.0,-999.0,74,0.00,,,0.00,Wunderground v.1.15,2013-01-31 11:36:00,
2013-01-31 06:40:00,39.5,26.3,30.11,North,0,2.0,-999.0,59,0.00,,,-99.99,Wunderground v.1.15,2013-01-31 11:40:00,
2013-01-31 06:42:00,42.7,33.6,29.84,NNE,31,5.0,-999.0,70,0.00,,,0.00,Wunderground v.1.15,2013-01-31 11:42:00,
2013-01-31 06:45:00,39.5,26.3,30.11,North,0,2.0,-999.0,59,0.00,,,-99.99,Wunderground v.1.15,2013-01-31 11:45:00,
2013-01-31 06:48:00,42.7,31.0,29.83,ENE,74,6.0,-999.0,63,0.00,,,0.00,Wunderground v.1.15,2013-01-31 11:48:00,
2013-01-31 06:50:00,39.5,26.3,30.11,North,0,2.0,-999.0,59,0.00,,,-99.99,Wunderground v.1.15,2013-01-31 11:50:00,
2013-01-31 06:54:00,42.6,30.1,29.84,NE,48,6.0,-999.0,61,0.00,,,0.00,Wunderground v.1.15,2013-01-31 11:54:00,
2013-01-31 06:55:00,39.5,26.3,30.11,North,0,2.0,-999.0,59,0.00,,,-99.99,Wunderground v.1.15,2013-01-31 11:55:00,
2013-01-31 07:00:00,42.3,29.8,29.85,East,79,6.0,-999.0,61,0.00,,,0.00,Wunderground v.1.15,2013-01-31 12:00:00,
2013-01-31 07:05:00,39.5,26.3,30.11,North,0,2.0,-999.0,59,0.00,,,-99.99,Wunderground v.1.15,2013-01-31 12:05:00,
2013-01-31 07:06:00,42.0,29.5,29.86,NE,52,6.0,-999.0,61,0.00,,,0.00,Wunderground v.1.15,2013-01-31 12:06:00,
2013-01-31 07:10:00,39.5,26.3,30.11,North,0,2.0,-999.0,59,0.00,,,-99.99,Wunderground v.1.15,2013-01-31 12:10:00,
2013-01-31 07:12:00,41.8,28.9,29.87,SE,135,5.0,-999.0,60,0.00,,,0.00,Wunderground v.1.15,2013-01-31 12:12:00,
2013-01-31 07:15:00,39.5,26.3,30.11,North,0,2.0,-999.0,59,0.00,,,-99.99,Wunderground v.1.15,2013-01-31 12:15:00,
2013-01-31 07:18:00,41.6,28.7,29.88,East,85,5.0,-999.0,60,0.00,,,0.00,Wunderground v.1.15,2013-01-31 12:18:00,
2013-01-31 07:20:00,39.5,26.3,30.11,North,0,2.0,-999.0,59,0.00,,,-99.99,Wunderground v.1.15,2013-01-31 12:20:00,
2013-01-31 07:24:00,41.4,28.1,29.88,East,79,4.0,-999.0,59,0.00,,,0.00,Wunderground v.1.15,2013-01-31 12:24:00,
2013-01-31 07:25:00,39.5,26.3,30.11,North,0,2.0,-999.0,59,0.00,,,-99.99,Wunderground v.1.15,2013-01-31 12:25:00,
2013-01-31 07:30:00,41.3,28.4,29.89,NE,51,5.0,-999.0,60,0.00,,,0.00,Wunderground v.1.15,2013-01-31 12:30:00,
2013-01-31 07:35:00,39.5,26.3,30.11,North,0,2.0,-999.0,59,0.00,,,-99.99,Wunderground v.1.15,2013-01-31 12:35:00,
2013-01-31 07:36:00,41.1,27.9,29.90,ENE,59,4.0,-999.0,59,0.00,,,0.00,Wunderground v.1.15,2013-01-31 12:36:00,
2013-01-31 07:40:00,39.5,26.3,30.11,North,0,2.0,-999.0,59,0.00,,,-99.99,Wunderground v.1.15,2013-01-31 12:40:00,
2013-01-31 07:42:00,41.1,27.0,29.90,NNE,31,5.0,-999.0,57,0.00,,,0.00,Wunderground v.1.15,2013-01-31 12:42:00,
2013-01-31 07:45:00,39.5,26.3,30.11,North,0,2.0,-999.0,59,0.00,,,-99.99,Wunderground v.1.15,2013-01-31 12:45:00,
2013-01-31 07:48:00,41.0,27.3,29.90,NE,48,4.0,-999.0,58,0.00,,,0.00,Wunderground v.1.15,2013-01-31 12:48:00,
2013-01-31 07:50:00,39.5,26.3,30.11,North,0,2.0,-999.0,59,0.00,,,-99.99,Wunderground v.1.15,2013-01-31 12:50:00,
2013-01-31 07:54:00,41.0,27.3,29.91,NE,34,4.0,-999.0,58,0.00,,,0.00,Wunderground v.1.15,2013-01-31 12:54:00,
2013-01-31 07:55:00,39.5,26.3,30.11,North,0,2.0,-999.0,59,0.00,,,-99.99,Wunderground v.1.15,2013-01-31 12:55:00,
2013-01-31 08:00:00,41.1,27.9,29.91,ENE,77,3.0,-999.0,59,0.00,,,0.00,Wunderground v.1.15,2013-01-31 13:00:00,
2013-01-31 08:05:00,39.5,26.3,30.11,North,0,2.0,-999.0,59,0.00,,,-99.99,Wunderground v.1.15,2013-01-31 13:05:00,
2013-01-31 08:06:00,41.4,27.7,29.92,ENE,60,4.0,-999.0,58,0.00,,,0.00,Wunderground v.1.15,2013-01-31 13:06:00,
2013-01-31 08:10:00,39.5,26.3,30.11,North,0,2.0,-999.0,59,0.00,,,-99.99,Wunderground v.1.15,2013-01-31 13:10:00,
2013-01-31 08:12:00,41.7,28.0,29.92,ENE,60,5.0,-999.0,58,0.00,,,0.00,Wunderground v.1.15,2013-01-31 13:12:00,
2013-01-31 08:15:00,39.5,26.3,30.11,North,0,2.0,-999.0,59,0.00,,,-99.99,Wunderground v.1.15,2013-01-31 13:15:00,
2013-01-31 08:18:00,41.9,27.8,29.93,ENE,63,4.0,-999.0,57,0.00,,,0.00,Wunderground v.1.15,2013-01-31 13:18:00,
2013-01-31 08:20:00,39.5,26.3,30.11,North,0,2.0,-999.0,59,0.00,,,-99.99,Wunderground v.1.15,2013-01-31 13:20:00,
2013-01-31 08:24:00,42.0,27.9,29.93,ESE,104,4.0,-999.0,57,0.00,,,0.00,Wunderground v.1.15,2013-01-31 13:24:00,
2013-01-31 08:25:00,39.5,26.3,30.11,North,0,2.0,-999.0,59,0.00,,,-99.99,Wunderground v.1.15,2013-01-31 13:25:00,
2013-01-31 08:30:00,42.0,27.9,29.93,NNE,20,4.0,-999.0,57,0.00,,,0.00,Wunderground v.1.15,2013-01-31 13:30:00,
2013-01-31 08:35:00,39.5,26.3,30.11,North,0,2.0,-999.0,59,0.00,,,-99.99,Wunderground v.1.15,2013-01-31 13:35:00,
2013-01-31 08:36:00,42.2,28.0,29.94,ENE,57,5.0,-999.0,57,0.00,,,0.00,Wunderground v.1.15,2013-01-31 13:36:00,
2013-01-31 08:40:00,39.5,26.3,30.11,North,0,2.0,-999.0,59,0.00,,,-99.99,Wunderground v.1.15,2013-01-31 13:40:00,
2013-01-31 08:42:00,42.2,28.0,29.94,North,8,5.0,-999.0,57,0.00,,,0.00,Wunderground v.1.15,2013-01-31 13:42:00,
2013-01-31 08:45:00,39.5,26.3,30.11,North,0,2.0,-999.0,59,0.00,,,-99.99,Wunderground v.1.15,2013-01-31 13:45:00,
2013-01-31 08:48:00,42.2,28.0,29.94,NE,48,4.0,-999.0,57,0.00,,,0.00,Wunderground v.1.15,2013-01-31 13:48:00,
2013-01-31 08:50:00,39.5,26.3,30.11,North,0,2.0,-999.0,59,0.00,,,-99.99,Wunderground v.1.15,2013-01-31 13:50:00,
2013-01-31 08:54:00,42.4,28.7,29.95,ENE,76,4.0,-999.0,58,0.00,,,0.00,Wunderground v.1.15,2013-01-31 13:54:00,
2013-01-31 08:55:00,39.5,26.3,30.11,North,0,2.0,-999.0,59,0.00,,,-99.99,Wunderground v.1.15,2013-01-31 13:55:00,
2013-01-31 09:00:00,42.4,27.8,29.96,NNE,25,5.0,-999.0,56,0.00,,,0.00,Wunderground v.1.15,2013-01-31 14:00:00,
2013-01-31 09:05:00,39.5,26.3,30.11,North,0,2.0,-999.0,59,0.00,,,-99.99,Wunderground v.1.15,2013-01-31 14:05:00,
2013-01-31 09:06:00,42.4,28.2,29.95,ESE,106,6.0,-999.0,57,0.00,,,0.00,Wunderground v.1.15,2013-01-31 14:06:00,
2013-01-31 09:10:00,39.5,26.3,30.11,North,0,2.0,-999.0,59,0.00,,,-99.99,Wunderground v.1.15,2013-01-31 14:10:00,
2013-01-31 09:12:00,42.6,27.5,29.96,ENE,76,6.0,-999.0,55,0.00,,,0.00,Wunderground v.1.15,2013-01-31 14:12:00,
2013-01-31 09:15:00,39.5,26.3,30.11,North,0,2.0,-999.0,59,0.00,,,-99.99,Wunderground v.1.15,2013-01-31 14:15:00,
2013-01-31 09:18:00,42.6,27.1,29.96,East,88,6.0,-999.0,54,0.00,,,0.00,Wunderground v.1.15,2013-01-31 14:18:00,
2013-01-31 09:20:00,39.5,26.3,30.11,North,0,2.0,-999.0,59,0.00,,,-99.99,Wunderground v.1.15,2013-01-31 14:20:00,
2013-01-31 09:24:00,42.9,28.3,29.97,NNE,29,6.0,-999.0,56,0.00,,,0.00,Wunderground v.1.15,2013-01-31 14:24:00,
2013-01-31 09:25:00,39.5,26.3,30.11,North,0,2.0,-999.0,59,0.00,,,-99.99,Wunderground v.1.15,2013-01-31 14:25:00,
2013-01-31 09:30:00,43.1,27.6,29.97,SE,132,5.0,-999.0,54,0.00,,,0.00,Wunderground v.1.15,2013-01-31 14:30:00,
2013-01-31 09:35:00,39.5,26.3,30.11,North,0,2.0,-999.0,59,0.00,,,-99.99,Wunderground v.1.15,2013-01-31 14:35:00,
2013-01-31 09:36:00,43.6,28.0,29.96,NE,52,5.0,-999.0,54,0.00,,,0.00,Wunderground v.1.15,2013-01-31 14:36:00,
2013-01-31 09:40:00,39.5,26.3,30.11,North,0,2.0,-999.0,59,0.00,,,-99.99,Wunderground v.1.15,2013-01-31 14:40:00,
2013-01-31 09:42:00,43.7,28.6,29.97,NE,37,5.0,-999.0,55,0.00,,,0.00,Wunderground v.1.15,2013-01-31 14:42:00,
2013-01-31 09:45:00,39.5,26.3,30.11,North,0,2.0,-999.0,59,0.00,,,-99.99,Wunderground v.1.15,2013-01-31 14:45:00,
2013-01-31 09:48:00,44.3,28.2,29.97,NE,41,4.0,-999.0,53,0.00,,,0.00,Wunderground v.1.15,2013-01-31 14:48:00,
2013-01-31 09:50:00,39.5,26.3,30.11,North,0,2.0,-999.0,59,0.00,,,-99.99,Wunderground v.1.15,2013-01-31 14:50:00,
2013-01-31 09:54:00,44.5,28.4,29.97,NE,52,5.0,-999.0,53,0.00,,,0.00,Wunderground v.1.15,2013-01-31 14:54:00,
2013-01-31 09:55:00,39.5,26.3,30.11,North,0,2.0,-999.0,59,0.00,,,-99.99,Wunderground v.1.15,2013-01-31 14:55:00,
2013-01-31 10:00:00,44.6,27.6,29.97,ENE,59,6.0,-999.0,51,0.00,,,0.00,Wunderground v.1.15,2013-01-31 15:00:00,
2013-01-31 10:05:00,39.5,26.3,30.11,North,0,2.0,-999.0,59,0.00,,,-99.99,Wunderground v.1.15,2013-01-31 15:05:00,
2013-01-31 10:06:00,44.8,28.2,29.97,East,81,6.0,-999.0,52,0.00,,,0.00,Wunderground v.1.15,2013-01-31 15:06:00,
2013-01-31 10:10:00,39.5,26.3,30.11,North,0,2.0,-999.0,59,0.00,,,-99.99,Wunderground v.1.15,2013-01-31 15:10:00,
2013-01-31 10:12:00,44.8,29.6,29.98,NE,52,6.0,-999.0,55,0.00,,,0.00,Wunderground v.1.15,2013-01-31 15:12:00,
2013-01-31 10:15:00,39.5,26.3,30.11,North,0,2.0,-999.0,59,0.00,,,-99.99,Wunderground v.1.15,2013-01-31 15:15:00,
2013-01-31 10:18:00,45.1,28.5,29.98,NE,50,5.0,-999.0,52,0.00,,,0.00,Wunderground v.1.15,2013-01-31 15:18:00,
2013-01-31 10:20:00,39.5,26.3,30.11,North,0,2.0,-999.0,59,0.00,,,-99.99,Wunderground v.1.15,2013-01-31 15:20:00,
2013-01-31 10:24:00,45.6,29.4,29.98,NE,52,5.0,-999.0,53,0.00,,,0.00,Wunderground v.1.15,2013-01-31 15:24:00,
2013-01-31 10:25:00,39.5,26.3,30.11,North,0,2.0,-999.0,59,0.00,,,-99.99,Wunderground v.1.15,2013-01-31 15:25:00,
2013-01-31 10:30:00,45.8,31.0,29.98,North,358,5.0,-999.0,56,0.00,,,0.00,Wunderground v.1.15,2013-01-31 15:30:00,
2013-01-31 10:35:00,39.5,26.3,30.11,North,0,2.0,-999.0,59,0.00,,,-99.99,Wunderground v.1.15,2013-01-31 15:35:00,
2013-01-31 10:36:00,46.0,29.3,29.99,East,85,5.0,-999.0,52,0.00,,,0.00,Wunderground v.1.15,2013-01-31 15:36:00,
2013-01-31 10:40:00,39.5,26.3,30.11,North,0,2.0,-999.0,59,0.00,,,-99.99,Wunderground v.1.15,2013-01-31 15:40:00,
2013-01-31 10:42:00,45.9,29.7,29.99,NE,47,5.0,-999.0,53,0.00,,,0.00,Wunderground v.1.15,2013-01-31 15:42:00,
2013-01-31 10:45:00,39.5,26.3,30.11,North,0,2.0,-999.0,59,0.00,,,-99.99,Wunderground v.1.15,2013-01-31 15:45:00,
2013-01-31 10:48:00,46.2,29.5,30.00,East,94,5.0,-999.0,52,0.00,,,0.00,Wunderground v.1.15,2013-01-31 15:48:00,
2013-01-31 10:50:00,39.5,26.3,30.11,North,0,2.0,-999.0,59,0.00,,,-99.99,Wunderground v.1.15,2013-01-31 15:50:00,
2013-01-31 10:54:00,46.7,31.8,29.99,NE,46,5.0,-999.0,56,0.00,,,0.00,Wunderground v.1.15,2013-01-31 15:54:00,
2013-01-31 10:55:00,39.5,26.3,30.11,North,0,2.0,-999.0,59,0.00,,,-99.99,Wunderground v.1.15,2013-01-31 15:55:00,
2013-01-31 11:00:00,47.0,30.3,30.00,North,4,4.0,-999.0,52,0.00,,,0.00,Wunderground v.1.15,2013-01-31 16:00:00,
2013-01-31 11:05:00,39.5,26.3,30.11,North,0,2.0,-999.0,59,0.00,,,-99.99,Wunderground v.1.15,2013-01-31 16:05:00,
2013-01-31 11:06:00,47.2,29.0,29.99,ENE,58,5.0,-999.0,49,0.00,,,0.00,Wunderground v.1.15,2013-01-31 16:06:00,
2013-01-31 11:10:00,39.5,26.3,30.11,North,0,2.0,-999.0,59,0.00,,,-99.99,Wunderground v.1.15,2013-01-31 16:10:00,
2013-01-31 11:12:00,47.2,30.0,29.99,ENE,74,5.0,-999.0,51,0.00,,,0.00,Wunderground v.1.15,2013-01-31 16:12:00,
2013-01-31 11:15:00,39.5,26.3,30.11,North,0,2.0,-999.0,59,0.00,,,-99.99,Wunderground v.1.15,2013-01-31 16:15:00,
2013-01-31 11:18:00,47.1,29.4,29.98,East,91,5.0,-999.0,50,0.00,,,0.00,Wunderground v.1.15,2013-01-31 16:18:00,
2013-01-31 11:20:00,39.5,26.3,30.11,North,0,2.0,-999.0,59,0.00,,,-99.99,Wunderground v.1.15,2013-01-31 16:20:00,
2013-01-31 11:24:00,47.3,30.5,29.98,NNE,23,5.0,-999.0,52,0.00,,,0.00,Wunderground v.1.15,2013-01-31 16:24:00,
2013-01-31 11:25:00,39.5,26.3,30.11,North,0,2.0,-999.0,59,0.00,,,-99.99,Wunderground v.1.15,2013-01-31 16:25:00,
2013-01-31 11:30:00,47.4,29.2,29.98,NE,40,5.0,-999.0,49,0.00,,,0.00,Wunderground v.1.15,2013-01-31 16:30:00,
2013-01-31 11:35:00,39.5,26.3,30.11,North,0,2.0,-999.0,59,0.00,,,-99.99,Wunderground v.1.15,2013-01-31 16:35:00,
2013-01-31 11:36:00,47.4,28.7,29.98,ENE,72,6.0,-999.0,48,0.00,,,0.00,Wunderground v.1.15,2013-01-31 16:36:00,
2013-01-31 11:40:00,39.5,26.3,30.11,North,0,2.0,-999.0,59,0.00,,,-99.99,Wunderground v.1.15,2013-01-31 16:40:00,
2013-01-31 11:42:00,47.9,29.6,29.98,NE,50,5.0,-999.0,49,0.00,,,0.00,Wunderground v.1.15,2013-01-31 16:42:00,
2013-01-31 11:45:00,39.5,26.3,30.11,North,0,2.0,-999.0,59,0.00,,,-99.99,Wunderground v.1.15,2013-01-31 16:45:00,
2013-01-31 11:48:00,48.1,27.2,29.98,NE,35,6.0,-999.0,44,0.00,,,0.00,Wunderground v.1.15,2013-01-31 16:48:00,
2013-01-31 11:50:00,39.5,26.3,30.11,North,0,2.0,-999.0,59,0.00,,,-99.99,Wunderground v.1.15,2013-01-31 16:50:00,
2013-01-31 11:54:00,48.2,27.8,29.98,ENE,63,6.0,-999.0,45,0.00,,,0.00,Wunderground v.1.15,2013-01-31 16:54:00,
2013-01-31 11:55:00,39.5,26.3,30.11,North,0,2.0,-999.0,59,0.00,,,-99.99,Wunderground v.1.15,2013-01-31 16:55:00,
2013-01-31 12:00:00,48.3,27.9,29.98,ENE,64,6.0,-999.0,45,0.00,,,0.00,Wunderground v.1.15,2013-01-31 17:00:00,
2013-01-31 12:05:00,39.5,26.3,30.11,North,0,2.0,-999.0,59,0.00,,,-99.99,Wunderground v.1.15,2013-01-31 17:05:00,
2013-01-31 12:06:00,48.7,30.4,29.98,NE,47,5.0,-999.0,49,0.00,,,0.00,Wunderground v.1.15,2013-01-31 17:06:00,
2013-01-31 12:10:00,39.5,26.3,30.11,North,0,2.0,-999.0,59,0.00,,,-99.99,Wunderground v.1.15,2013-01-31 17:10:00,
2013-01-31 12:12:00,48.8,27.3,29.98,ENE,61,5.0,-999.0,43,0.00,,,0.00,Wunderground v.1.15,2013-01-31 17:12:00,
2013-01-31 12:15:00,39.5,26.3,30.11,North,0,2.0,-999.0,59,0.00,,,-99.99,Wunderground v.1.15,2013-01-31 17:15:00,
2013-01-31 12:18:00,48.8,27.3,29.98,East,82,6.0,-999.0,43,0.00,,,0.00,Wunderground v.1.15,2013-01-31 17:18:00,
2013-01-31 12:20:00,39.5,26.3,30.11,North,0,2.0,-999.0,59,0.00,,,-99.99,Wunderground v.1.15,2013-01-31 17:20:00,
2013-01-31 12:24:00,48.9,30.1,29.98,NNE,16,5.0,-999.0,48,0.00,,,0.00,Wunderground v.1.15,2013-01-31 17:24:00,
2013-01-31 12:25:00,39.5,26.3,30.11,North,0,2.0,-999.0,59,0.00,,,-99.99,Wunderground v.1.15,2013-01-31 17:25:00,
2013-01-31 12:30:00,48.7,26.6,29.98,NE,37,6.0,-999.0,42,0.00,,,0.00,Wunderground v.1.15,2013-01-31 17:30:00,
2013-01-31 12:35:00,39.5,26.3,30.11,North,0,2.0,-999.0,59,0.00,,,-99.99,Wunderground v.1.15,2013-01-31 17:35:00,
2013-01-31 12:36:00,48.6,27.1,29.98,NE,36,6.0,-999.0,43,0.00,,,0.00,Wunderground v.1.15,2013-01-31 17:36:00,
2013-01-31 12:40:00,39.5,26.3,30.11,North,0,2.0,-999.0,59,0.00,,,-99.99,Wunderground v.1.15,2013-01-31 17:40:00,
2013-01-31 12:42:00,48.8,26.7,29.98,NNE,33,6.0,-999.0,42,0.00,,,0.00,Wunderground v.1.15,2013-01-31 17:42:00,
2013-01-31 12:45:00,39.5,26.3,30.11,North,0,2.0,-999.0,59,0.00,,,-99.99,Wunderground v.1.15,2013-01-31 17:45:00,
2013-01-31 12:48:00,49.3,27.7,29.98,NE,54,5.0,-999.0,43,0.00,,,0.00,Wunderground v.1.15,2013-01-31 17:48:00,
2013-01-31 12:50:00,39.5,26.3,30.11,North,0,2.0,-999.0,59,0.00,,,-99.99,Wunderground v.1.15,2013-01-31 17:50:00,
2013-01-31 12:54:00,49.2,25.9,29.98,East,85,6.0,-999.0,40,0.00,,,0.00,Wunderground v.1.15,2013-01-31 17:54:00,
2013-01-31 12:55:00,39.5,26.3,30.11,North,0,2.0,-999.0,59,0.00,,,-99.99,Wunderground v.1.15,2013-01-31 17:55:00,
2013-01-31 13:00:00,49.2,27.1,29.98,ENE,62,6.0,-999.0,42,0.00,,,0.00,Wunderground v.1.15,2013-01-31 18:00:00,
2013-01-31 13:05:00,39.5,26.3,30.11,North,0,2.0,-999.0,59,0.00,,,-99.99,Wunderground v.1.15,2013-01-31 18:05:00,
2013-01-31 13:06:00,49.3,26.6,29.98,NE,45,6.0,-999.0,41,0.00,,,0.00,Wunderground v.1.15,2013-01-31 18:06:00,
2013-01-31 13:10:00,39.5,26.3,30.11,North,0,2.0,-999.0,59,0.00,,,-99.99,Wunderground v.1.15,2013-01-31 18:10:00,
2013-01-31 13:12:00,48.8,26.1,29.98,NE,41,7.0,-999.0,41,0.00,,,0.00,Wunderground v.1.15,2013-01-31 18:12:00,
2013-01-31 13:15:00,39.5,26.3,30.11,North,0,2.0,-999.0,59,0.00,,,-99.99,Wunderground v.1.15,2013-01-31 18:15:00,
2013-01-31 13:18:00,49.2,27.6,29.97,NE,39,5.0,-999.0,43,0.00,,,0.00,Wunderground v.1.15,2013-01-31 18:18:00,
2013-01-31 13:20:00,39.5,26.3,30.11,North,0,2.0,-999.0,59,0.00,,,-99.99,Wunderground v.1.15,2013-01-31 18:20:00,
2013-01-31 13:24:00,49.7,28.1,29.97,North,10,4.0,-999.0,43,0.00,,,0.00,Wunderground v.1.15,2013-01-31 18:24:00,
2013-01-31 13:25:00,39.5,26.3,30.11,North,0,2.0,-999.0,59,0.00,,,-99.99,Wunderground v.1.15,2013-01-31 18:25:00,
2013-01-31 13:30:00,50.1,29.0,29.97,NNE,28,4.0,-999.0,44,0.00,,,0.00,Wunderground v.1.15,2013-01-31 18:30:00,
2013-01-31 13:35:00,39.5,26.3,30.11,North,0,2.0,-999.0,59,0.00,,,-99.99,Wunderground v.1.15,2013-01-31 18:35:00,
2013-01-31 13:36:00,50.3,27.5,29.97,East,84,5.0,-999.0,41,0.00,,,0.00,Wunderground v.1.15,2013-01-31 18:36:00,
2013-01-31 13:40:00,39.5,26.3,30.11,North,0,2.0,-999.0,59,0.00,,,-99.99,Wunderground v.1.15,2013-01-31 18:40:00,
2013-01-31 13:42:00,50.1,27.9,29.97,NE,39,5.0,-999.0,42,0.00,,,0.00,Wunderground v.1.15,2013-01-31 18:42:00,
2013-01-31 13:45:00,39.5,26.3,30.11,North,0,2.0,-999.0,59,0.00,,,-99.99,Wunderground v.1.15,2013-01-31 18:45:00,
2013-01-31 13:48:00,50.1,27.3,29.98,NE,51,5.0,-999.0,41,0.00,,,0.00,Wunderground v.1.15,2013-01-31 18:48:00,
2013-01-31 13:50:00,39.5,26.3,30.11,North,0,2.0,-999.0,59,0.00,,,-99.99,Wunderground v.1.15,2013-01-31 18:50:00,
2013-01-31 13:54:00,50.4,31.9,29.98,NNE,29,4.0,-999.0,49,0.00,,,0.00,Wunderground v.1.15,2013-01-31 18:54:00,
2013-01-31 13:55:00,39.5,26.3,30.11,North,0,2.0,-999.0,59,0.00,,,-99.99,Wunderground v.1.15,2013-01-31 18:55:00,
2013-01-31 14:00:00,50.5,28.2,29.97,North,355,4.0,-999.0,42,0.00,,,0.00,Wunderground v.1.15,2013-01-31 19:00:00,
2013-01-31 14:05:00,39.5,26.3,30.11,North,0,2.0,-999.0,59,0.00,,,-99.99,Wunderground v.1.15,2013-01-31 19:05:00,
2013-01-31 14:06:00,50.5,27.0,29.98,North,355,5.0,-999.0,40,0.00,,,0.00,Wunderground v.1.15,2013-01-31 19:06:00,
2013-01-31 14:10:00,39.5,26.3,30.11,North,0,2.0,-999.0,59,0.00,,,-99.99,Wunderground v.1.15,2013-01-31 19:10:00,
2013-01-31 14:12:00,50.5,28.2,29.97,ENE,58,5.0,-999.0,42,0.00,,,0.00,Wunderground v.1.15,2013-01-31 19:12:00,
2013-01-31 14:15:00,39.5,26.3,30.11,North,0,2.0,-999.0,59,0.00,,,-99.99,Wunderground v.1.15,2013-01-31 19:15:00,
2013-01-31 14:18:00,50.4,27.6,29.98,ENE,63,4.0,-999.0,41,0.00,,,0.00,Wunderground v.1.15,2013-01-31 19:18:00,
2013-01-31 14:20:00,39.5,26.3,30.11,North,0,2.0,-999.0,59,0.00,,,-99.99,Wunderground v.1.15,2013-01-31 19:20:00,
2013-01-31 14:24:00,49.9,28.3,29.98,ENE,75,5.0,-999.0,43,0.00,,,0.00,Wunderground v.1.15,2013-01-31 19:24:00,
2013-01-31 14:25:00,39.5,26.3,30.11,North,0,2.0,-999.0,59,0.00,,,-99.99,Wunderground v.1.15,2013-01-31 19:25:00,
2013-01-31 14:30:00,50.4,28.7,29.99,ENE,78,4.0,-999.0,43,0.00,,,0.00,Wunderground v.1.15,2013-01-31 19:30:00,
2013-01-31 14:35:00,39.5,26.3,30.11,North,0,2.0,-999.0,59,0.00,,,-99.99,Wunderground v.1.15,2013-01-31 19:35:00,
2013-01-31 14:36:00,50.4,27.0,29.99,NE,52,4.0,-999.0,40,0.00,,,0.00,Wunderground v.1.15,2013-01-31 19:36:00,
2013-01-31 14:40:00,39.5,26.3,30.11,North,0,2.0,-999.0,59,0.00,,,-99.99,Wunderground v.1.15,2013-01-31 19:40:00,
2013-01-31 14:42:00,50.2,28.5,29.99,NNW,329,5.0,-999.0,43,0.00,,,0.00,Wunderground v.1.15,2013-01-31 19:42:00,
2013-01-31 14:45:00,39.5,26.3,30.11,North,0,2.0,-999.0,59,0.00,,,-99.99,Wunderground v.1.15,2013-01-31 19:45:00,
2013-01-31 14:48:00,50.1,27.3,29.99,NNE,31,5.0,-999.0,41,0.00,,,0.00,Wunderground v.1.15,2013-01-31 19:48:00,
2013-01-31 14:50:00,39.5,26.3,30.11,North,0,2.0,-999.0,59,0.00,,,-99.99,Wunderground v.1.15,2013-01-31 19:50:00,
2013-01-31 14:54:00,50.4,28.1,29.99,North,352,5.0,-999.0,42,0.00,,,0.00,Wunderground v.1.15,2013-01-31 19:54:00,
2013-01-31 14:55:00,39.5,26.3,30.11,North,0,2.0,-999.0,59,0.00,,,-99.99,Wunderground v.1.15,2013-01-31 19:55:00,
2013-01-31 15:00:00,50.0,26.6,30.00,East,81,6.0,-999.0,40,0.00,,,0.00,Wunderground v.1.15,2013-01-31 20:00:00,
2013-01-31 15:05:00,39.5,26.3,30.11,North,0,2.0,-999.0,59,0.00,,,-99.99,Wunderground v.1.15,2013-01-31 20:05:00,
2013-01-31 15:06:00,49.5,26.7,30.00,NE,41,7.0,-999.0,41,0.00,,,0.00,Wunderground v.1.15,2013-01-31 20:06:00,
2013-01-31 15:10:00,39.5,26.3,30.11,North,0,2.0,-999.0,59,0.00,,,-99.99,Wunderground v.1.15,2013-01-31 20:10:00,
2013-01-31 15:12:00,49.4,27.8,30.00,ENE,57,6.0,-999.0,43,0.00,,,0.00,Wunderground v.1.15,2013-01-31 20:12:00,
2013-01-31 15:15:00,39.5,26.3,30.11,North,0,2.0,-999.0,59,0.00,,,-99.99,Wunderground v.1.15,2013-01-31 20:15:00,
2013-01-31 15:18:00,50.0,26.6,30.00,NNE,31,5.0,-999.0,40,0.00,,,0.00,Wunderground v.1.15,2013-01-31 20:18:00,
2013-01-31 15:20:00,39.5,26.3,30.11,North,0,2.0,-999.0,59,0.00,,,-99.99,Wunderground v.1.15,2013-01-31 20:20:00,
2013-01-31 15:24:00,49.9,26.5,30.01,NNE,22,5.0,-999.0,40,0.00,,,0.00,Wunderground v.1.15,2013-01-31 20:24:00,
2013-01-31 15:25:00,39.5,26.3,30.11,North,0,2.0,-999.0,59,0.00,,,-99.99,Wunderground v.1.15,2013-01-31 20:25:00,
2013-01-31 15:30:00,49.6,26.8,30.01,NE,37,5.0,-999.0,41,0.00,,,0.00,Wunderground v.1.15,2013-01-31 20:30:00,
2013-01-31 15:35:00,39.5,26.3,30.11,North,0,2.0,-999.0,59,0.00,,,-99.99,Wunderground v.1.15,2013-01-31 20:35:00,
2013-01-31 15:36:00,49.2,25.3,30.01,ENE,62,5.0,-999.0,39,0.00,,,0.00,Wunderground v.1.15,2013-01-31 20:36:00,
2013-01-31 15:40:00,39.5,26.3,30.11,North,0,2.0,-999.0,59,0.00,,,-99.99,Wunderground v.1.15,2013-01-31 20:40:00,
2013-01-31 15:42:00,49.1,26.4,30.01,East,83,6.0,-999.0,41,0.00,,,0.00,Wunderground v.1.15,2013-01-31 20:42:00,
2013-01-31 15:45:00,39.5,26.3,30.11,North,0,2.0,-999.0,59,0.00,,,-99.99,Wunderground v.1.15,2013-01-31 20:45:00,
2013-01-31 15:48:00,49.1,27.5,30.01,ENE,72,5.0,-999.0,43,0.00,,,0.00,Wunderground v.1.15,2013-01-31 20:48:00,
2013-01-31 15:50:00,39.5,26.3,30.11,North,0,2.0,-999.0,59,0.00,,,-99.99,Wunderground v.1.15,2013-01-31 20:50:00,
2013-01-31 15:54:00,49.4,25.4,30.01,NE,41,4.0,-999.0,39,0.00,,,0.00,Wunderground v.1.15,2013-01-31 20:54:00,
2013-01-31 15:55:00,39.5,26.3,30.11,North,0,2.0,-999.0,59,0.00,,,-99.99,Wunderground v.1.15,2013-01-31 20:55:00,
2013-01-31 16:00:00,49.4,25.4,30.02,NE,50,5.0,-999.0,39,0.00,,,0.00,Wunderground v.1.15,2013-01-31 21:00:00,
2013-01-31 16:05:00,39.5,26.3,30.11,North,0,2.0,-999.0,59,0.00,,,-99.99,Wunderground v.1.15,2013-01-31 21:05:00,
2013-01-31 16:06:00,49.5,26.1,30.02,NNE,27,5.0,-999.0,40,0.00,,,0.00,Wunderground v.1.15,2013-01-31 21:06:00,
2013-01-31 16:10:00,39.5,26.3,30.11,North,0,2.0,-999.0,59,0.00,,,-99.99,Wunderground v.1.15,2013-01-31 21:10:00,
2013-01-31 16:12:00,49.6,25.6,30.02,East,89,5.0,-999.0,39,0.00,,,0.00,Wunderground v.1.15,2013-01-31 21:12:00,
2013-01-31 16:15:00,39.5,26.3,30.11,North,0,2.0,-999.0,59,0.00,,,-99.99,Wunderground v.1.15,2013-01-31 21:15:00,
2013-01-31 16:18:00,49.7,25.1,30.02,NE,54,7.0,-999.0,38,0.00,,,0.00,Wunderground v.1.15,2013-01-31 21:18:00,
2013-01-31 16:20:00,39.5,26.3,30.11,North,0,2.0,-999.0,59,0.00,,,-99.99,Wunderground v.1.15,2013-01-31 21:20:00,
2013-01-31 16:24:00,49.6,25.6,30.02,NE,42,6.0,-999.0,39,0.00,,,0.00,Wunderground v.1.15,2013-01-31 21:24:00,
2013-01-31 16:25:00,39.5,26.3,30.11,North,0,2.0,-999.0,59,0.00,,,-99.99,Wunderground v.1.15,2013-01-31 21:25:00,
2013-01-31 16:30:00,49.7,25.7,30.02,NE,44,6.0,-999.0,39,0.00,,,0.00,Wunderground v.1.15,2013-01-31 21:30:00,
2013-01-31 16:35:00,39.5,26.3,30.11,North,0,2.0,-999.0,59,0.00,,,-99.99,Wunderground v.1.15,2013-01-31 21:35:00,
2013-01-31 16:36:00,49.6,26.2,30.03,East,89,5.0,-999.0,40,0.00,,,0.00,Wunderground v.1.15,2013-01-31 21:36:00,
2013-01-31 16:40:00,39.5,26.3,30.11,North,0,2.0,-999.0,59,0.00,,,-99.99,Wunderground v.1.15,2013-01-31 21:40:00,
2013-01-31 16:42:00,49.5,25.5,30.03,NE,39,5.0,-999.0,39,0.00,,,0.00,Wunderground v.1.15,2013-01-31 21:42:00,
2013-01-31 16:45:00,39.5,26.3,30.11,North,0,2.0,-999.0,59,0.00,,,-99.99,Wunderground v.1.15,2013-01-31 21:45:00,
2013-01-31 16:48:00,49.5,24.9,30.02,NNW,332,5.0,-999.0,38,0.00,,,0.00,Wunderground v.1.15,2013-01-31 21:48:00,
2013-01-31 16:50:00,39.5,26.3,30.11,North,0,2.0,-999.0,59,0.00,,,-99.99,Wunderground v.1.15,2013-01-31 21:50:00,
2013-01-31 16:54:00,49.5,26.1,30.02,NE,37,4.0,-999.0,40,0.00,,,0.00,Wunderground v.1.15,2013-01-31 21:54:00,
2013-01-31 16:55:00,39.5,26.3,30.11,North,0,2.0,-999.0,59,0.00,,,-99.99,Wunderground v.1.15,2013-01-31 21:55:00,
2013-01-31 17:00:00,49.4,24.8,30.02,East,97,4.0,-999.0,38,0.00,,,0.00,Wunderground v.1.15,2013-01-31 22:00:00,
2013-01-31 17:05:00,39.5,26.3,30.11,North,0,2.0,-999.0,59,0.00,,,-99.99,Wunderground v.1.15,2013-01-31 22:05:00,
2013-01-31 17:06:00,49.5,24.9,30.02,East,79,5.0,-999.0,38,0.00,,,0.00,Wunderground v.1.15,2013-01-31 22:06:00,
2013-01-31 17:10:00,39.5,26.3,30.11,North,0,2.0,-999.0,59,0.00,,,-99.99,Wunderground v.1.15,2013-01-31 22:10:00,
2013-01-31 17:12:00,49.4,25.4,30.02,NE,35,5.0,-999.0,39,0.00,,,0.00,Wunderground v.1.15,2013-01-31 22:12:00,
2013-01-31 17:15:00,39.5,26.3,30.11,North,0,2.0,-999.0,59,0.00,,,-99.99,Wunderground v.1.15,2013-01-31 22:15:00,
2013-01-31 17:18:00,49.1,27.5,30.03,NNE,25,3.0,-999.0,43,0.00,,,0.00,Wunderground v.1.15,2013-01-31 22:18:00,
2013-01-31 17:20:00,39.5,26.3,30.11,North,0,2.0,-999.0,59,0.00,,,-99.99,Wunderground v.1.15,2013-01-31 22:20:00,
2013-01-31 17:24:00,48.7,25.4,30.03,NNE,13,2.0,-999.0,40,0.00,,,0.00,Wunderground v.1.15,2013-01-31 22:24:00,
2013-01-31 17:25:00,39.5,26.3,30.11,North,0,2.0,-999.0,59,0.00,,,-99.99,Wunderground v.1.15,2013-01-31 22:25:00,
2013-01-31 17:30:00,48.8,25.5,30.03,NE,51,3.0,-999.0,40,0.00,,,0.00,Wunderground v.1.15,2013-01-31 22:30:00,
2013-01-31 17:35:00,39.5,26.3,30.11,North,0,2.0,-999.0,59,0.00,,,-99.99,Wunderground v.1.15,2013-01-31 22:35:00,
2013-01-31 17:36:00,48.8,24.9,30.03,NE,50,3.0,-999.0,39,0.00,,,0.00,Wunderground v.1.15,2013-01-31 22:36:00,
2013-01-31 17:40:00,39.5,26.3,30.11,North,0,2.0,-999.0,59,0.00,,,-99.99,Wunderground v.1.15,2013-01-31 22:40:00,
2013-01-31 17:42:00,48.7,24.2,30.03,ENE,57,3.0,-999.0,38,0.00,,,0.00,Wunderground v.1.15,2013-01-31 22:42:00,
2013-01-31 17:45:00,39.5,26.3,30.11,North,0,2.0,-999.0,59,0.00,,,-99.99,Wunderground v.1.15,2013-01-31 22:45:00,
2013-01-31 17:48:00,48.6,24.1,30.04,SSW,200,3.0,-999.0,38,0.00,,,0.00,Wunderground v.1.15,2013-01-31 22:48:00,
2013-01-31 17:50:00,39.5,26.3,30.11,North,0,2.0,-999.0,59,0.00,,,-99.99,Wunderground v.1.15,2013-01-31 22:50:00,
2013-01-31 17:54:00,48.3,23.8,30.04,ENE,67,3.0,-999.0,38,0.00,,,0.00,Wunderground v.1.15,2013-01-31 22:54:00,
2013-01-31 17:55:00,39.5,26.3,30.11,North,0,2.0,-999.0,59,0.00,,,-99.99,Wunderground v.1.15,2013-01-31 22:55:00,
2013-01-31 18:00:00,48.3,23.2,30.05,ENE,78,3.0,-999.0,37,0.00,,,0.00,Wunderground v.1.15,2013-01-31 23:00:00,
2013-01-31 18:05:00,39.5,26.3,30.11,North,0,2.0,-999.0,59,0.00,,,-99.99,Wunderground v.1.15,2013-01-31 23:05:00,
2013-01-31 18:06:00,48.3,23.2,30.05,ENE,71,4.0,-999.0,37,0.00,,,0.00,Wunderground v.1.15,2013-01-31 23:06:00,
2013-01-31 18:10:00,39.5,26.3,30.11,North,0,2.0,-999.0,59,0.00,,,-99.99,Wunderground v.1.15,2013-01-31 23:10:00,
2013-01-31 18:12:00,47.8,23.4,30.05,ENE,72,2.0,-999.0,38,0.00,,,0.00,Wunderground v.1.15,2013-01-31 23:12:00,
2013-01-31 18:15:00,39.5,26.3,30.11,North,0,2.0,-999.0,59,0.00,,,-99.99,Wunderground v.1.15,2013-01-31 23:15:00,
2013-01-31 18:18:00,47.6,21.3,30.05,ENE,61,3.0,-999.0,35,0.00,,,0.00,Wunderground v.1.15,2013-01-31 23:18:00,
2013-01-31 18:20:00,39.5,26.3,30.11,North,0,2.0,-999.0,59,0.00,,,-99.99,Wunderground v.1.15,2013-01-31 23:20:00,
2013-01-31 18:24:00,47.6,21.3,30.05,NE,37,4.0,-999.0,35,0.00,,,0.00,Wunderground v.1.15,2013-01-31 23:24:00,
2013-01-31 18:25:00,39.5,26.3,30.11,North,0,2.0,-999.0,59,0.00,,,-99.99,Wunderground v.1.15,2013-01-31 23:25:00,
2013-01-31 18:30:00,47.4,21.1,30.06,NE,54,3.0,-999.0,35,0.00,,,0.00,Wunderground v.1.15,2013-01-31 23:30:00,
2013-01-31 18:35:00,39.5,26.3,30.11,North,0,2.0,-999.0,59,0.00,,,-99.99,Wunderground v.1.15,2013-01-31 23:35:00,
2013-01-31 18:36:00,47.3,21.0,30.06,ENE,60,3.0,-999.0,35,0.00,,,0.00,Wunderground v.1.15,2013-01-31 23:36:00,
2013-01-31 18:40:00,39.5,26.3,30.11,North,0,2.0,-999.0,59,0.00,,,-99.99,Wunderground v.1.15,2013-01-31 23:40:00,
2013-01-31 18:42:00,47.0,21.4,30.06,NE,54,3.0,-999.0,36,0.00,,,0.00,Wunderground v.1.15,2013-01-31 23:42:00,
2013-01-31 18:45:00,39.5,26.3,30.11,North,0,2.0,-999.0,59,0.00,,,-99.99,Wunderground v.1.15,2013-01-31 23:45:00,
2013-01-31 18:48:00,46.7,21.1,30.07,ENE,69,3.0,-999.0,36,0.00,,,0.00,Wunderground v.1.15,2013-01-31 23:48:00,
2013-01-31 18:50:00,39.5,26.3,30.11,North,0,2.0,-999.0,59,0.00,,,-99.99,Wunderground v.1.15,2013-01-31 23:50:00,
2013-01-31 18:54:00,46.5,21.6,30.07,ENE,72,2.0,-999.0,37,0.00,,,0.00,Wunderground v.1.15,2013-01-31 23:54:00,
2013-01-31 18:55:00,39.5,26.3,30.11,North,0,2.0,-999.0,59,0.00,,,-99.99,Wunderground v.1.15,2013-01-31 23:55:00,
2013-01-31 19:00:00,46.2,22.0,30.07,ENE,70,1.0,-999.0,38,0.00,,,0.00,Wunderground v.1.15,2013-02-01 00:00:00,
2013-01-31 19:05:00,39.5,26.3,30.11,North,0,2.0,-999.0,59,0.00,,,-99.99,Wunderground v.1.15,2013-02-01 00:05:00,
2013-01-31 19:06:00,45.8,21.6,30.07,ENE,71,1.0,-999.0,38,0.00,,,0.00,Wunderground v.1.15,2013-02-01 00:06:00,
2013-01-31 19:10:00,39.5,26.3,30.11,North,0,2.0,-999.0,59,0.00,,,-99.99,Wunderground v.1.15,2013-02-01 00:10:00,
2013-01-31 19:12:00,45.3,22.4,30.08,ENE,68,0.0,-999.0,40,0.00,,,0.00,Wunderground v.1.15,2013-02-01 00:12:00,
2013-01-31 19:15:00,39.5,26.3,30.11,North,0,2.0,-999.0,59,0.00,,,-99.99,Wunderground v.1.15,2013-02-01 00:15:00,
2013-01-31 19:18:00,44.8,22.5,30.08,ENE,67,0.0,-999.0,41,0.00,,,0.00,Wunderground v.1.15,2013-02-01 00:18:00,
2013-01-31 19:20:00,39.5,26.3,30.11,North,0,2.0,-999.0,59,0.00,,,-99.99,Wunderground v.1.15,2013-02-01 00:20:00,
2013-01-31 19:24:00,44.2,22.5,30.07,ENE,67,0.0,-999.0,42,0.00,,,0.00,Wunderground v.1.15,2013-02-01 00:24:00,
2013-01-31 19:25:00,39.5,26.3,30.11,North,0,2.0,-999.0,59,0.00,,,-99.99,Wunderground v.1.15,2013-02-01 00:25:00,
2013-01-31 19:30:00,43.6,23.6,30.08,ENE,67,0.0,-999.0,45,0.00,,,0.00,Wunderground v.1.15,2013-02-01 00:30:00,
2013-01-31 19:35:00,39.5,26.3,30.11,North,0,2.0,-999.0,59,0.00,,,-99.99,Wunderground v.1.15,2013-02-01 00:35:00,
2013-01-31 19:36:00,42.9,23.0,30.08,ENE,67,0.0,-999.0,45,0.00,,,0.00,Wunderground v.1.15,2013-02-01 00:36:00,
2013-01-31 19:40:00,39.5,26.3,30.11,North,0,2.0,-999.0,59,0.00,,,-99.99,Wunderground v.1.15,2013-02-01 00:40:00,
2013-01-31 19:42:00,42.5,22.6,30.08,ENE,70,0.0,-999.0,45,0.00,,,0.00,Wunderground v.1.15,2013-02-01 00:42:00,
2013-01-31 19:45:00,39.5,26.3,30.11,North,0,2.0,-999.0,59,0.00,,,-99.99,Wunderground v.1.15,2013-02-01 00:45:00,
2013-01-31 19:48:00,42.2,23.4,30.08,ENE,71,0.0,-999.0,47,0.00,,,0.00,Wunderground v.1.15,2013-02-01 00:48:00,
2013-01-31 19:50:00,39.5,26.3,30.11,North,0,2.0,-999.0,59,0.00,,,-99.99,Wunderground v.1.15,2013-02-01 00:50:00,
2013-01-31 19:54:00,41.8,23.0,30.08,ENE,71,0.0,-999.0,47,0.00,,,0.00,Wunderground v.1.15,2013-02-01 00:54:00,
2013-01-31 19:55:00,39.5,26.3,30.11,North,0,2.0,-999.0,59,0.00,,,-99.99,Wunderground v.1.15,2013-02-01 00:55:00,
2013-01-31 20:00:00,41.4,22.7,30.09,ENE,71,0.0,-999.0,47,0.00,,,0.00,Wunderground v.1.15,2013-02-01 01:00:00,
2013-01-31 20:05:00,39.5,26.3,30.11,North,0,2.0,-999.0,59,0.00,,,-99.99,Wunderground v.1.15,2013-02-01 01:05:00,
2013-01-31 20:06:00,40.9,22.7,30.09,ENE,71,0.0,-999.0,48,0.00,,,0.00,Wunderground v.1.15,2013-02-01 01:06:00,
2013-01-31 20:10:00,39.5,26.3,30.11,North,0,2.0,-999.0,59,0.00,,,-99.99,Wunderground v.1.15,2013-02-01 01:10:00,
2013-01-31 20:12:00,40.5,22.8,30.09,ENE,71,0.0,-999.0,49,0.00,,,0.00,Wunderground v.1.15,2013-02-01 01:12:00,
2013-01-31 20:15:00,39.5,26.3,30.11,North,0,2.0,-999.0,59,0.00,,,-99.99,Wunderground v.1.15,2013-02-01 01:15:00,
2013-01-31 20:18:00,40.0,23.8,30.09,ENE,71,0.0,-999.0,52,0.00,,,0.00,Wunderground v.1.15,2013-02-01 01:18:00,
2013-01-31 20:20:00,39.5,26.3,30.11,North,0,2.0,-999.0,59,0.00,,,-99.99,Wunderground v.1.15,2013-02-01 01:20:00,
2013-01-31 20:24:00,39.5,22.8,30.09,ENE,71,0.0,-999.0,51,0.00,,,0.00,Wunderground v.1.15,2013-02-01 01:24:00,
2013-01-31 20:25:00,39.5,26.3,30.11,North,0,2.0,-999.0,59,0.00,,,-99.99,Wunderground v.1.15,2013-02-01 01:25:00,
2013-01-31 20:30:00,39.2,23.0,30.09,ENE,71,0.0,-999.0,52,0.00,,,0.00,Wunderground v.1.15,2013-02-01 01:30:00,
2013-01-31 20:35:00,39.5,26.3,30.11,North,0,2.0,-999.0,59,0.00,,,-99.99,Wunderground v.1.15,2013-02-01 01:35:00,
2013-01-31 20:36:00,38.9,23.7,30.09,ENE,71,0.0,-999.0,54,0.00,,,0.00,Wunderground v.1.15,2013-02-01 01:36:00,
2013-01-31 20:40:00,39.5,26.3,30.11,North,0,2.0,-999.0,59,0.00,,,-99.99,Wunderground v.1.15,2013-02-01 01:40:00,
2013-01-31 20:42:00,38.6,25.1,30.09,ENE,71,0.0,-999.0,58,0.00,,,0.00,Wunderground v.1.15,2013-02-01 01:42:00,
2013-01-31 20:45:00,39.5,26.3,30.11,North,0,2.0,-999.0,59,0.00,,,-99.99,Wunderground v.1.15,2013-02-01 01:45:00,
2013-01-31 20:48:00,38.3,24.0,30.09,ENE,71,0.0,-999.0,56,0.00,,,0.00,Wunderground v.1.15,2013-02-01 01:48:00,
2013-01-31 20:50:00,39.5,26.3,30.11,North,0,2.0,-999.0,59,0.00,,,-99.99,Wunderground v.1.15,2013-02-01 01:50:00,
2013-01-31 20:54:00,38.2,24.3,30.09,ENE,71,0.0,-999.0,57,0.00,,,0.00,Wunderground v.1.15,2013-02-01 01:54:00,
2013-01-31 20:55:00,39.5,26.3,30.11,North,0,2.0,-999.0,59,0.00,,,-99.99,Wunderground v.1.15,2013-02-01 01:55:00,
2013-01-31 21:00:00,37.9,25.6,30.09,ENE,71,0.0,-999.0,61,0.00,,,0.00,Wunderground v.1.15,2013-02-01 02:00:00,
2013-01-31 21:05:00,39.5,26.3,30.11,North,0,2.0,-999.0,59,0.00,,,-99.99,Wunderground v.1.15,2013-02-01 02:05:00,
2013-01-31 21:06:00,37.6,25.0,30.09,ENE,71,0.0,-999.0,60,0.00,,,0.00,Wunderground v.1.15,2013-02-01 02:06:00,
2013-01-31 21:10:00,39.5,26.3,30.11,North,0,2.0,-999.0,59,0.00,,,-99.99,Wunderground v.1.15,2013-02-01 02:10:00,
2013-01-31 21:12:00,37.3,24.7,30.09,ENE,71,0.0,-999.0,60,0.00,,,0.00,Wunderground v.1.15,2013-02-01 02:12:00,
2013-01-31 21:15:00,39.5,26.3,30.11,North,0,2.0,-999.0,59,0.00,,,-99.99,Wunderground v.1.15,2013-02-01 02:15:00,
2013-01-31 21:18:00,36.9,24.7,30.09,ENE,71,0.0,-999.0,61,0.00,,,0.00,Wunderground v.1.15,2013-02-01 02:18:00,
2013-01-31 21:20:00,39.5,26.3,30.11,North,0,2.0,-999.0,59,0.00,,,-99.99,Wunderground v.1.15,2013-02-01 02:20:00,
2013-01-31 21:24:00,36.5,24.3,30.09,ENE,71,0.0,-999.0,61,0.00,,,0.00,Wunderground v.1.15,2013-02-01 02:24:00,
2013-01-31 21:25:00,39.5,26.3,30.11,North,0,2.0,-999.0,59,0.00,,,-99.99,Wunderground v.1.15,2013-02-01 02:25:00,
2013-01-31 21:30:00,36.1,25.1,30.09,ENE,71,0.0,-999.0,64,0.00,,,0.00,Wunderground v.1.15,2013-02-01 02:30:00,
2013-01-31 21:35:00,39.5,26.3,30.11,North,0,2.0,-999.0,59,0.00,,,-99.99,Wunderground v.1.15,2013-02-01 02:35:00,
2013-01-31 21:36:00,35.9,25.3,30.09,ENE,71,0.0,-999.0,65,0.00,,,0.00,Wunderground v.1.15,2013-02-01 02:36:00,
2013-01-31 21:40:00,39.5,26.3,30.11,North,0,2.0,-999.0,59,0.00,,,-99.99,Wunderground v.1.15,2013-02-01 02:40:00,
2013-01-31 21:42:00,35.9,25.3,30.09,ENE,70,0.0,-999.0,65,0.00,,,0.00,Wunderground v.1.15,2013-02-01 02:42:00,
2013-01-31 21:45:00,39.5,26.3,30.11,North,0,2.0,-999.0,59,0.00,,,-99.99,Wunderground v.1.15,2013-02-01 02:45:00,
2013-01-31 21:48:00,36.2,25.9,30.09,North,360,0.0,-999.0,66,0.00,,,0.00,Wunderground v.1.15,2013-02-01 02:48:00,
2013-01-31 21:50:00,39.5,26.3,30.11,North,0,2.0,-999.0,59,0.00,,,-99.99,Wunderground v.1.15,2013-02-01 02:50:00,
2013-01-31 21:54:00,36.9,26.6,30.10,North,6,0.0,-999.0,66,0.00,,,0.00,Wunderground v.1.15,2013-02-01 02:54:00,
2013-01-31 21:55:00,39.5,26.3,30.11,North,0,2.0,-999.0,59,0.00,,,-99.99,Wunderground v.1.15,2013-02-01 02:55:00,
2013-01-31 22:00:00,37.6,26.9,30.11,North,349,1.0,-999.0,65,0.00,,,0.00,Wunderground v.1.15,2013-02-01 03:00:00,
2013-01-31 22:05:00,39.5,26.3,30.11,North,0,2.0,-999.0,59,0.00,,,-99.99,Wunderground v.1.15,2013-02-01 03:05:00,
2013-01-31 22:06:00,38.0,26.9,30.11,NNE,25,1.0,-999.0,64,0.00,,,0.00,Wunderground v.1.15,2013-02-01 03:06:00,
2013-01-31 22:10:00,39.5,26.3,30.11,North,0,2.0,-999.0,59,0.00,,,-99.99,Wunderground v.1.15,2013-02-01 03:10:00,
2013-01-31 22:12:00,38.2,26.7,30.11,North,349,1.0,-999.0,63,0.00,,,0.00,Wunderground v.1.15,2013-02-01 03:12:00,
2013-01-31 22:15:00,39.5,26.3,30.11,North,0,2.0,-999.0,59,0.00,,,-99.99,Wunderground v.1.15,2013-02-01 03:15:00,
2013-01-31 22:18:00,38.4,26.5,30.11,NNE,16,1.0,-999.0,62,0.00,,,0.00,Wunderground v.1.15,2013-02-01 03:18:00,
2013-01-31 22:20:00,39.5,26.3,30.11,North,0,2.0,-999.0,59,0.00,,,-99.99,Wunderground v.1.15,2013-02-01 03:20:00,
2013-01-31 22:24:00,38.5,26.2,30.11,NNW,348,1.0,-999.0,61,0.00,,,0.00,Wunderground v.1.15,2013-02-01 03:24:00,
2013-01-31 22:25:00,39.5,26.3,30.11,North,0,2.0,-999.0,59,0.00,,,-99.99,Wunderground v.1.15,2013-02-01 03:25:00,
2013-01-31 22:30:00,38.7,26.0,30.11,NNW,343,1.0,-999.0,60,0.00,,,0.00,Wunderground v.1.15,2013-02-01 03:30:00,
2013-01-31 22:35:00,39.5,26.3,30.11,North,0,2.0,-999.0,59,0.00,,,-99.99,Wunderground v.1.15,2013-02-01 03:35:00,
2013-01-31 22:36:00,38.8,25.7,30.11,NW,312,2.0,-999.0,59,0.00,,,0.00,Wunderground v.1.15,2013-02-01 03:36:00,
2013-01-31 22:40:00,39.5,26.3,30.11,North,0,2.0,-999.0,59,0.00,,,-99.99,Wunderground v.1.15,2013-02-01 03:40:00,
2013-01-31 22:42:00,39.0,25.9,30.11,NNW,347,2.0,-999.0,59,0.00,,,0.00,Wunderground v.1.15,2013-02-01 03:42:00,
2013-01-31 22:45:00,39.5,26.3,30.11,North,0,2.0,-999.0,59,0.00,,,-99.99,Wunderground v.1.15,2013-02-01 03:45:00,
2013-01-31 22:48:00,39.1,25.6,30.11,NNE,16,2.0,-999.0,58,0.00,,,0.00,Wunderground v.1.15,2013-02-01 03:48:00,
2013-01-31 22:50:00,39.5,26.3,30.11,North,0,2.0,-999.0,59,0.00,,,-99.99,Wunderground v.1.15,2013-02-01 03:50:00,
2013-01-31 22:54:00,39.3,25.7,30.11,North,6,2.0,-999.0,58,0.00,,,0.00,Wunderground v.1.15,2013-02-01 03:54:00,
2013-01-31 22:55:00,39.5,26.3,30.11,North,0,2.0,-999.0,59,0.00,,,-99.99,Wunderground v.1.15,2013-02-01 03:55:00,
2013-01-31 23:00:00,39.3,25.7,30.11,North,10,1.0,-999.0,58,0.00,,,0.00,Wunderground v.1.15,2013-02-01 04:00:00,
2013-01-31 23:05:00,39.5,26.3,30.11,North,0,2.0,-999.0,59,0.00,,,-99.99,Wunderground v.1.15,2013-02-01 04:05:00,
2013-01-31 23:06:00,39.2,25.6,30.12,North,4,2.0,-999.0,58,0.00,,,0.00,Wunderground v.1.15,2013-02-01 04:06:00,
2013-01-31 23:10:00,39.5,26.3,30.11,North,0,2.0,-999.0,59,0.00,,,-99.99,Wunderground v.1.15,2013-02-01 04:10:00,
2013-01-31 23:12:00,39.3,25.7,30.11,North,351,2.0,-999.0,58,0.00,,,0.00,Wunderground v.1.15,2013-02-01 04:12:00,
2013-01-31 23:15:00,39.5,26.3,30.11,North,0,2.0,-999.0,59,0.00,,,-99.99,Wunderground v.1.15,2013-02-01 04:15:00,
2013-01-31 23:18:00,39.1,25.6,30.11,NNE,27,2.0,-999.0,58,0.00,,,0.00,Wunderground v.1.15,2013-02-01 04:18:00,
2013-01-31 23:20:00,39.5,26.3,30.11,North,0,2.0,-999.0,59,0.00,,,-99.99,Wunderground v.1.15,2013-02-01 04:20:00,
2013-01-31 23:24:00,39.0,25.9,30.11,NE,34,2.0,-999.0,59,0.00,,,0.00,Wunderground v.1.15,2013-02-01 04:24:00,
2013-01-31 23:25:00,39.5,26.3,30.11,North,0,2.0,-999.0,59,0.00,,,-99.99,Wunderground v.1.15,2013-02-01 04:25:00,
2013-01-31 23:30:00,39.1,26.0,30.12,North,5,2.0,-999.0,59,0.00,,,0.00,Wunderground v.1.15,2013-02-01 04:30:00,
2013-01-31 23:35:00,39.5,26.3,30.11,North,0,2.0,-999.0,59,0.00,,,-99.99,Wunderground v.1.15,2013-02-01 04:35:00,
2013-01-31 23:36:00,39.0,25.9,30.12,NNE,17,2.0,-999.0,59,0.00,,,0.00,Wunderground v.1.15,2013-02-01 04:36:00,
2013-01-31 23:40:00,39.5,26.3,30.11,North,0,2.0,-999.0,59,0.00,,,-99.99,Wunderground v.1.15,2013-02-01 04:40:00,
2013-01-31 23:42:00,39.0,25.9,30.11,NNE,13,2.0,-999.0,59,0.00,,,0.00,Wunderground v.1.15,2013-02-01 04:42:00,
2013-01-31 23:45:00,39.5,26.3,30.11,North,0,2.0,-999.0,59,0.00,,,-99.99,Wunderground v.1.15,2013-02-01 04:45:00,
2013-01-31 23:48:00,39.1,26.0,30.11,NNE,14,2.0,-999.0,59,0.00,,,0.00,Wunderground v.1.15,2013-02-01 04:48:00,
2013-01-31 23:50:00,39.5,26.3,30.11,North,0,2.0,-999.0,59,0.00,,,-99.99,Wunderground v.1.15,2013-02-01 04:50:00,
2013-01-31 23:54:00,39.2,26.1,30.11,NW,319,2.0,-999.0,59,0.00,,,0.00,Wunderground v.1.15,2013-02-01 04:54:00,
2013-01-31 23:55:00,39.5,26.3,30.11,North,0,2.0,-999.0,59,0.00,,,-99.99,Wunderground v.1.15,2013-02-01 04:55:00,